DW9005 Weather Reports


time (UTC)temp
F
wind
direction
speed
knots
gust
knots
rain 1hr
in
rain 24hr
in
rain mn
in
humidity
%
barometer
mb
20260503214536 70 294 0.0 0.0 0.00 0.00 0.00 38 1018.7
20260503213024 70 294 0.0 0.0 0.00 0.00 0.00 38 1018.7
20260503211505 70 313 0.0 0.0 0.00 0.00 0.00 38 1018.9
20260503210006 69 347 0.0 0.0 0.00 0.00 0.00 40 1019.0
20260503204606 69 288 0.0 0.0 0.00 0.00 0.00 40 1019.2
20260503203047 69 307 0.0 0.0 0.00 0.00 0.00 41 1019.4
20260503201535 68 277 0.0 0.0 0.00 0.00 0.00 45 1019.6
20260503200034 69 35 0.0 0.0 0.00 0.00 0.00 43 1019.9
20260503194536 69 315 0.0 0.0 0.00 0.00 0.00 42 1020.2
20260503193042 68 272 0.0 0.0 0.00 0.00 0.00 41 1020.5
20260503191558 67 311 0.0 0.0 0.00 0.00 0.00 44 1020.8
20260503190032 67 300 0.0 0.0 0.00 0.00 0.00 43 1021.0
20260503184526 68 270 0.0 0.0 0.00 0.00 0.00 44 1021.3
20260503183026 67 179 0.0 0.0 0.00 0.00 0.00 41 1021.4
20260503181507 67 293 0.0 0.0 0.00 0.00 0.00 45 1021.6
20260503180006 66 257 0.0 0.0 0.00 0.00 0.00 45 1021.7
20260503174605 66 188 0.0 0.0 0.00 0.00 0.00 44 1021.8
20260503173046 65 339 0.0 0.0 0.00 0.00 0.00 44 1021.9
20260503171543 65 293 0.0 0.0 0.00 0.00 0.00 48 1022.1
20260503081527 44 355 0.0 0.0 0.00 0.00 0.00 93 1020.1
20260503080108 44 355 0.0 0.0 0.00 0.00 0.00 93 1020.0
20260503071538 45 355 0.0 0.0 0.00 0.00 0.00 93 1019.6
20260503054557 46 355 0.0 0.0 0.00 0.00 0.00 92 1019.5
20260503053024 46 355 0.0 0.0 0.00 0.00 0.00 92 1019.4
20260503051515 47 355 0.0 0.0 0.00 0.00 0.00 91 1019.1
20260503050057 47 355 0.0 0.0 0.00 0.00 0.00 91 1018.9
20260503044554 47 21 0.0 0.0 0.00 0.00 0.00 90 1018.5
20260503043045 48 21 0.0 0.0 0.00 0.00 0.00 90 1018.5
20260503041532 48 21 0.0 0.0 0.00 0.00 0.00 89 1018.3
20260503040019 49 21 0.0 0.0 0.00 0.00 0.00 88 1018.3
20260503034518 49 21 0.0 0.0 0.00 0.00 0.00 86 1018.2
20260503033015 49 21 0.0 0.0 0.00 0.00 0.00 84 1018.2
20260503031514 50 21 0.0 0.0 0.00 0.00 0.00 83 1018.1
20260503030011 50 21 0.0 0.0 0.00 0.00 0.00 82 1018.1
20260503024509 51 21 0.0 0.0 0.00 0.00 0.00 80 1017.9
20260503023006 52 21 0.0 0.0 0.00 0.00 0.00 79 1017.8
20260503021503 52 21 0.0 0.0 0.00 0.00 0.00 77 1017.6
20260503020043 53 21 0.0 0.0 0.00 0.00 0.00 75 1017.4
20260503014549 54 21 0.0 0.0 0.00 0.00 0.00 73 1017.2
20260503013034 55 21 0.0 0.0 0.00 0.00 0.00 70 1016.9
20260503011521 56 21 0.0 0.0 0.00 0.00 0.00 66 1016.7
20260503010004 58 21 0.0 0.0 0.00 0.00 0.00 61 1016.6
20260503004504 60 21 0.0 0.0 0.00 0.00 0.00 54 1016.5
20260503003047 62 21 0.0 0.0 0.00 0.00 0.00 51 1016.3
20260503001548 63 15 0.0 0.0 0.00 0.00 0.00 46 1016.1
20260503000027 64 327 0.0 0.0 0.00 0.00 0.00 44 1015.9
20260502234537 65 342 0.0 0.0 0.00 0.00 0.00 41 1015.7
20260502233026 66 297 0.0 0.0 0.00 0.00 0.00 39 1015.6
20260502231508 66 5 0.0 0.0 0.00 0.00 0.00 39 1015.6
20260502230051 66 271 0.0 0.0 0.00 0.00 0.00 40 1015.6
20260502224550 67 269 0.0 0.0 0.00 0.00 0.00 39 1015.7
20260502223040 66 296 0.0 0.0 0.00 0.00 0.00 41 1015.6
20260502221532 66 332 0.0 0.0 0.00 0.00 0.00 41 1015.5
20260502220021 67 291 0.0 0.0 0.00 0.00 0.00 39 1015.4